Flag for India Weather past 2 weeks in Dharamshala, Himachal Pradesh, India

57 °F

Passing clouds.

Feels Like: 57 °F
Forecast: 41 / 59 °F
Wind: No wind

Location: Amritsar Airport

Current Time: Nov 27, 2015 at 1:38:42 AM

Latest Report: Nov 26, 2015 at 10:30 PM

Visibility: 2 mi

Pressure: 29.92 "Hg (25.38 "Hg at 1382m altitude)

Humidity: 67%

Dew point: 46 °F

Location of DharamshalaLocation

Historic Weather in Dharamshala — Graph


Dharamshala temperature yesterday

Maximum temperature yesterday: 77 °F (at 12:30 PM)
Minimum temperature yesterday: 55 °F (at 5:00 AM)
Average temperature yesterday: 64 °F

Past Weeks' High & Low Weather Summary

High82 °F (Nov 15, 3:00 PM)100% (Nov 21, 4:00 AM)30.15 "Hg (Nov 21, 4:00 AM)
Low48 °F (Nov 18, 6:30 AM)26% (Nov 25, 4:30 PM)29.89 "Hg (Nov 14, 2:30 PM)
Average64 °F67%29.99 "Hg
* Reported Nov 11 10:30 PM — Nov 26 10:30 PM, Dharamshala, Weather by CustomWeather, © 2015

Note: Actual official high and low records may vary slightly from our data, if they occured in-between our weather recording intervals... More about our weather records


Dharamshala weather history for previous 24 hours

Time TempWeatherWind HumidityBarometerVisibility
10:30 PM
Thu, Nov 26
57 °FPassing clouds.No wind67%29.92 "Hg2 mi
5:00 PM72 °FScattered clouds.6 mph41%29.92 "Hg2 mi
4:30 PM75 °FScattered clouds.3 mph34%29.92 "Hg3 mi
4:00 PM77 °FScattered clouds.No wind30%29.92 "Hg3 mi
3:30 PM77 °FScattered clouds.No wind30%29.92 "Hg3 mi
3:00 PM77 °FScattered clouds.1 mph30%29.92 "Hg3 mi
2:30 PM77 °FScattered clouds.3 mph34%29.92 "Hg3 mi
2:00 PM77 °FScattered clouds.5 mph32%29.92 "Hg3 mi
12:30 PM77 °FScattered clouds.No wind34%29.98 "Hg3 mi
11:30 AM75 °FScattered clouds.No wind36%29.98 "Hg2 mi
9:30 AM66 °FScattered clouds.No wind56%29.98 "Hg1 mi
9:00 AM64 °FScattered clouds.No wind64%29.98 "Hg2 mi
8:30 AM59 °FFog.No wind77%29.98 "Hg2 mi
8:00 AM57 °FFog.No wind77%29.95 "Hg2 mi
7:30 AM57 °FFog.No wind77%29.95 "Hg2 mi
7:00 AM57 °FFog.No wind77%29.95 "Hg2 mi
6:30 AM57 °FFog.No wind77%29.92 "Hg2 mi
5:30 AM57 °FFog.No wind82%29.92 "Hg2 mi
5:00 AM55 °FFog.No wind82%29.92 "Hg2 mi
4:00 AM57 °FPartly cloudy.No wind72%29.95 "Hg2 mi
3:30 AM57 °FPartly cloudy.No wind77%29.95 "Hg2 mi
2:30 AM57 °FPartly cloudy.No wind77%29.95 "Hg2 mi
2:00 AM57 °FPartly cloudy.No wind72%29.98 "Hg2 mi
1:30 AM59 °FPartly cloudy.No wind68%29.98 "Hg2 mi
1:00 AM57 °FPartly cloudy.No wind72%29.98 "Hg2 mi
Weather by CustomWeather, © 2015

See weather overviewHow to use our weather pages